Year,Month,Day,Hour,Minute,Value (Times are PST for temperature in C)
2008,07,01,00,00,20.90
2008,07,01,00,01,20.90
2008,07,01,00,02,20.80
2008,07,01,00,03,20.80
2008,07,01,00,04,20.80
2008,07,01,00,05,20.80
2008,07,01,00,06,20.70
2008,07,01,00,07,20.60
2008,07,01,00,08,20.60
2008,07,01,00,09,20.50
2008,07,01,00,10,20.50
2008,07,01,00,11,20.50
2008,07,01,00,12,20.50
2008,07,01,01,02,19.50
2008,07,01,01,03,19.50
2008,07,01,01,04,19.50
2008,07,01,01,05,19.50
2008,07,01,01,06,19.50
2008,07,01,01,07,19.50
2008,07,01,01,08,19.50
2008,07,01,01,09,19.40
2008,07,01,01,10,19.40
2008,07,01,01,11,19.40
2008,07,01,01,12,19.40
2008,07,01,01,13,19.40
2008,07,01,01,14,19.40
2008,07,01,01,15,19.40
2008,07,01,01,16,19.40
2008,07,01,01,17,19.40
2008,07,01,01,18,19.40
2008,07,01,01,19,19.30
2008,07,01,01,20,19.30
2008,07,01,01,21,19.30
2008,07,01,01,22,19.30
2008,07,01,01,23,19.30
2008,07,01,01,24,19.20
2008,07,01,01,25,19.20
2008,07,01,01,26,19.20
2008,07,01,01,27,19.10
2008,07,01,01,28,19.10
2008,07,01,01,29,19.10
2008,07,01,01,30,19.10
2008,07,01,01,31,19.10
2008,07,01,01,32,19.10
2008,07,01,01,33,19.10
2008,07,01,01,34,19.00
2008,07,01,01,35,18.90
2008,07,01,01,36,18.90
2008,07,01,01,37,18.90
2008,07,01,01,38,18.90
2008,07,01,01,39,18.90
2008,07,01,01,40,18.90
2008,07,01,01,41,18.90
2008,07,01,01,42,18.90
2008,07,01,01,43,18.90
2008,07,01,01,44,18.90
2008,07,01,01,45,18.90
2008,07,01,01,46,18.90
2008,07,01,01,47,18.90
2008,07,01,01,48,18.80
2008,07,01,01,49,18.80
2008,07,01,01,50,18.80
2008,07,01,01,51,18.80
2008,07,01,01,52,18.80
2008,07,01,01,53,18.80
2008,07,01,01,54,18.70
2008,07,01,01,55,18.70
2008,07,01,01,56,18.70
2008,07,01,01,57,18.70
2008,07,01,01,58,18.70
2008,07,01,01,59,18.70
2008,07,01,02,00,18.70
2008,07,01,02,01,18.70
2008,07,01,02,02,18.60
2008,07,01,02,03,18.60
2008,07,01,02,04,18.60
2008,07,01,02,05,18.60
2008,07,01,02,06,18.60
2008,07,01,02,07,18.60
2008,07,01,02,08,18.50
2008,07,01,02,09,18.50
2008,07,01,02,10,18.50
2008,07,01,02,11,18.50
2008,07,01,02,12,18.50
2008,07,01,02,13,18.50
2008,07,01,02,14,18.50
2008,07,01,02,15,18.40
2008,07,01,02,16,18.40
2008,07,01,02,17,18.40
2008,07,01,02,18,18.40
2008,07,01,02,19,18.40
2008,07,01,02,20,18.40
2008,07,01,02,21,18.40
2008,07,01,02,22,18.30
2008,07,01,02,23,18.30
2008,07,01,02,24,18.30
2008,07,01,02,25,18.30
2008,07,01,02,26,18.30
2008,07,01,02,27,18.30
2008,07,01,02,28,18.30
2008,07,01,02,29,18.30
2008,07,01,02,30,18.30
2008,07,01,02,31,18.20
2008,07,01,02,32,18.20
2008,07,01,02,33,18.20
2008,07,01,02,34,18.20
2008,07,01,02,35,18.20
2008,07,01,02,36,18.20
2008,07,01,02,37,18.20
2008,07,01,02,38,18.20
2008,07,01,02,39,18.20
2008,07,01,02,40,18.20
2008,07,01,02,41,18.20
2008,07,01,02,42,18.20
2008,07,01,02,43,18.20
2008,07,01,02,44,18.20
2008,07,01,02,45,18.20
2008,07,01,02,46,18.20
2008,07,01,02,47,18.20
2008,07,01,02,48,18.20
2008,07,01,02,49,18.20
2008,07,01,02,50,18.20
2008,07,01,02,51,18.20
2008,07,01,02,52,18.20
2008,07,01,02,53,18.20
2008,07,01,02,54,18.20
2008,07,01,02,55,18.20
2008,07,01,02,56,18.20
2008,07,01,02,57,18.20
2008,07,01,02,58,18.20
2008,07,01,02,59,18.20
2008,07,01,03,00,18.20
2008,07,01,03,01,18.20
2008,07,01,03,02,18.20
2008,07,01,03,03,18.20
2008,07,01,03,04,18.20
2008,07,01,03,05,18.20
2008,07,01,03,06,18.20
2008,07,01,03,07,18.20
2008,07,01,03,08,18.20
2008,07,01,03,09,18.10
2008,07,01,03,10,18.10
2008,07,01,03,11,18.10
2008,07,01,03,12,18.10
2008,07,01,03,13,18.10
2008,07,01,03,14,18.10
2008,07,01,03,15,18.10
2008,07,01,03,16,18.10
2008,07,01,03,17,18.10
2008,07,01,03,18,18.10
2008,07,01,03,19,18.10
2008,07,01,03,20,18.10
2008,07,01,03,21,18.10
2008,07,01,03,22,18.10
2008,07,01,03,23,18.10
2008,07,01,03,24,18.10
2008,07,01,03,25,18.10
2008,07,01,03,26,18.10
2008,07,01,03,27,18.10
2008,07,01,03,28,18.10
2008,07,01,03,29,18.10
2008,07,01,03,30,18.10
2008,07,01,03,31,18.10
2008,07,01,03,32,18.10
2008,07,01,03,33,18.10
2008,07,01,03,34,18.10
2008,07,01,03,35,18.00
2008,07,01,03,36,17.90
2008,07,01,03,37,17.90
2008,07,01,03,38,17.90
2008,07,01,03,39,17.90
2008,07,01,03,40,17.90
2008,07,01,03,41,17.90
2008,07,01,03,42,17.90
2008,07,01,03,43,17.90
2008,07,01,03,44,17.90
2008,07,01,03,45,17.90
2008,07,01,03,46,17.90
2008,07,01,03,47,17.90
2008,07,01,03,48,17.90
2008,07,01,03,49,17.90
2008,07,01,03,50,17.90
2008,07,01,03,51,17.90
2008,07,01,03,52,17.90
2008,07,01,03,53,17.90
2008,07,01,03,54,17.90
2008,07,01,03,55,17.80
2008,07,01,03,56,17.80
2008,07,01,03,57,17.80
2008,07,01,03,58,17.80
2008,07,01,03,59,17.80
2008,07,01,04,00,17.80
2008,07,01,04,01,17.80
2008,07,01,04,02,17.80
2008,07,01,04,03,17.70
2008,07,01,04,04,17.70
2008,07,01,04,05,17.70
2008,07,01,04,06,17.70
2008,07,01,04,07,17.70
2008,07,01,04,08,17.70
2008,07,01,04,09,17.70
2008,07,01,04,10,17.70
2008,07,01,04,11,17.70
2008,07,01,04,12,17.60
2008,07,01,04,13,17.60
2008,07,01,04,14,17.60
2008,07,01,04,15,17.60
2008,07,01,04,16,17.60
2008,07,01,04,17,17.60
2008,07,01,04,18,17.50
2008,07,01,04,19,17.50
2008,07,01,04,20,17.50
2008,07,01,04,21,17.50
2008,07,01,04,22,17.40
2008,07,01,04,23,17.40
2008,07,01,04,24,17.40
2008,07,01,04,25,17.40
2008,07,01,04,26,17.30
2008,07,01,04,27,17.30
2008,07,01,04,28,17.30
2008,07,01,04,29,17.30
2008,07,01,04,30,17.30
2008,07,01,04,31,17.30
2008,07,01,04,32,17.30
2008,07,01,04,33,17.30
2008,07,01,04,34,17.30
2008,07,01,04,35,17.20
2008,07,01,04,36,17.20
2008,07,01,04,37,17.20
2008,07,01,04,38,17.20
2008,07,01,04,39,17.20
2008,07,01,04,40,17.10
2008,07,01,04,41,17.10
2008,07,01,04,42,17.10
2008,07,01,04,43,17.10
2008,07,01,04,44,17.10
2008,07,01,04,45,17.00
2008,07,01,04,46,17.00
2008,07,01,04,47,17.00
2008,07,01,04,48,17.00
2008,07,01,04,49,17.00
2008,07,01,04,50,17.00
2008,07,01,04,51,17.00
2008,07,01,04,52,16.90
2008,07,01,04,53,16.90
2008,07,01,04,54,16.90
2008,07,01,04,55,16.90
2008,07,01,04,56,16.90
2008,07,01,04,57,16.90
2008,07,01,04,58,16.90
2008,07,01,04,59,16.80
2008,07,01,05,00,16.80
2008,07,01,05,01,16.80
2008,07,01,05,02,16.80
2008,07,01,05,03,16.80
2008,07,01,05,04,16.80
2008,07,01,05,05,16.70
2008,07,01,05,06,16.70
2008,07,01,05,07,16.70
2008,07,01,05,08,16.70
2008,07,01,05,09,16.70
2008,07,01,05,10,16.70
2008,07,01,05,11,16.70
2008,07,01,05,12,16.70
2008,07,01,05,13,16.70
2008,07,01,05,14,16.70
2008,07,01,05,15,16.70
2008,07,01,05,16,16.70
2008,07,01,05,17,16.70
2008,07,01,05,18,16.70
2008,07,01,05,19,16.60
2008,07,01,05,20,16.60
2008,07,01,05,21,16.60
2008,07,01,05,22,16.60
2008,07,01,05,23,16.60
2008,07,01,05,24,16.60
2008,07,01,05,25,16.60
2008,07,01,05,26,16.60
2008,07,01,05,27,16.60
2008,07,01,05,28,16.60
2008,07,01,05,29,16.50
2008,07,01,05,30,16.40
2008,07,01,05,31,16.40
2008,07,01,05,32,16.40
2008,07,01,05,33,16.40
2008,07,01,05,34,16.50
2008,07,01,05,35,16.60
2008,07,01,05,36,16.60
2008,07,01,05,37,16.60
2008,07,01,05,38,16.60
2008,07,01,05,39,16.60
2008,07,01,05,40,16.60
2008,07,01,05,41,16.60
2008,07,01,05,42,16.60
2008,07,01,05,43,16.60
2008,07,01,05,44,16.60
2008,07,01,05,45,16.70
2008,07,01,05,46,16.70
2008,07,01,05,47,16.70
2008,07,01,05,48,16.70
2008,07,01,05,49,16.70
2008,07,01,05,50,16.70
2008,07,01,05,51,16.70
2008,07,01,05,52,16.70
2008,07,01,05,53,16.70
2008,07,01,05,54,16.70
2008,07,01,05,55,16.70
2008,07,01,05,56,16.70
2008,07,01,05,57,16.70
2008,07,01,05,58,16.70
2008,07,01,05,59,16.70
2008,07,01,06,00,16.70
2008,07,01,06,01,16.70
2008,07,01,06,02,16.70
2008,07,01,06,03,16.70
2008,07,01,06,04,16.70
2008,07,01,06,05,16.70
2008,07,01,06,06,16.70
2008,07,01,06,07,16.70
2008,07,01,06,08,16.70
2008,07,01,06,09,16.70
2008,07,01,06,10,16.70
2008,07,01,06,11,16.70
2008,07,01,06,12,16.70
2008,07,01,06,13,16.70
2008,07,01,06,14,16.70
2008,07,01,06,15,16.70
2008,07,01,06,16,16.80
2008,07,01,06,17,16.80
2008,07,01,06,18,16.80
2008,07,01,06,19,16.80
2008,07,01,06,20,16.80
2008,07,01,06,21,16.80
2008,07,01,06,22,16.80
2008,07,01,06,23,16.80
2008,07,01,06,24,16.80
2008,07,01,06,25,16.80
2008,07,01,06,26,16.80
2008,07,01,06,27,16.90
2008,07,01,06,28,16.90
2008,07,01,06,29,16.90
2008,07,01,06,30,16.90
2008,07,01,06,31,16.90
2008,07,01,06,32,16.90
2008,07,01,06,33,16.90
2008,07,01,06,34,16.90
2008,07,01,06,35,17.00
2008,07,01,06,36,17.00
2008,07,01,06,37,17.00
2008,07,01,06,38,17.00
2008,07,01,06,39,17.00
2008,07,01,06,40,17.00
2008,07,01,06,41,17.10
2008,07,01,06,42,17.10
2008,07,01,06,43,17.10
2008,07,01,06,44,17.10
2008,07,01,06,45,17.10
2008,07,01,06,46,17.10
2008,07,01,06,47,17.20
2008,07,01,06,48,17.20
2008,07,01,06,49,17.20
2008,07,01,06,50,17.20
2008,07,01,06,51,17.20
2008,07,01,06,52,17.20
2008,07,01,06,53,17.20
2008,07,01,06,54,17.30
2008,07,01,06,55,17.30
2008,07,01,06,56,17.30
2008,07,01,06,57,17.30
2008,07,01,06,58,17.30
2008,07,01,06,59,17.30
2008,07,01,07,00,17.30
2008,07,01,07,01,17.30
2008,07,01,07,02,17.30
2008,07,01,07,03,17.30
2008,07,01,07,04,17.30
2008,07,01,07,05,17.30
2008,07,01,07,06,17.40
2008,07,01,07,07,17.40
2008,07,01,07,08,17.40
2008,07,01,07,09,17.40
2008,07,01,07,10,17.40
2008,07,01,07,11,17.40
2008,07,01,07,12,17.40
2008,07,01,07,13,17.50
2008,07,01,07,14,17.50
2008,07,01,07,15,17.50
2008,07,01,07,16,17.50
2008,07,01,07,17,17.50
2008,07,01,07,18,17.60
2008,07,01,07,19,17.60
2008,07,01,07,20,17.60
2008,07,01,07,21,17.60
2008,07,01,07,22,17.70
2008,07,01,07,23,17.70
2008,07,01,07,24,17.70
2008,07,01,07,25,17.70
2008,07,01,07,26,17.70
2008,07,01,07,27,17.70
2008,07,01,07,28,17.80
2008,07,01,07,29,17.80
2008,07,01,07,30,17.80
2008,07,01,07,31,17.80
2008,07,01,07,32,17.80
2008,07,01,07,33,17.80
2008,07,01,07,34,17.90
2008,07,01,07,35,17.90
2008,07,01,07,36,17.90
2008,07,01,07,37,17.90
2008,07,01,07,38,17.90
2008,07,01,07,39,17.90
2008,07,01,07,40,18.10
2008,07,01,07,41,18.10
2008,07,01,07,42,18.10
2008,07,01,07,43,18.10
2008,07,01,07,44,18.10
2008,07,01,07,45,18.10
2008,07,01,07,46,18.20
2008,07,01,07,47,18.20
2008,07,01,07,48,18.20
2008,07,01,07,49,18.20
2008,07,01,07,50,18.20
2008,07,01,07,51,18.20
2008,07,01,07,52,18.20
2008,07,01,07,53,18.20
2008,07,01,07,54,18.20
2008,07,01,07,55,18.20
2008,07,01,07,56,18.30
2008,07,01,07,57,18.30
2008,07,01,07,58,18.30
2008,07,01,07,59,18.30
2008,07,01,08,00,18.30
2008,07,01,08,01,18.40
2008,07,01,08,02,18.40
2008,07,01,08,03,18.50
2008,07,01,08,04,18.50
2008,07,01,08,05,18.50
2008,07,01,08,06,18.50
2008,07,01,08,07,18.50
2008,07,01,08,08,18.60
2008,07,01,08,09,18.60
2008,07,01,08,10,18.60
2008,07,01,08,11,18.60
2008,07,01,08,12,18.60
2008,07,01,08,13,18.70
2008,07,01,08,14,18.70
2008,07,01,08,15,18.80
2008,07,01,08,16,18.80
2008,07,01,08,17,18.80
2008,07,01,08,18,18.90
2008,07,01,08,19,18.90
2008,07,01,08,20,18.90
2008,07,01,08,21,18.90
2008,07,01,08,22,18.90
2008,07,01,08,23,18.90
2008,07,01,08,24,18.90
2008,07,01,08,25,19.00
2008,07,01,08,26,19.10
2008,07,01,08,27,19.10
2008,07,01,08,28,19.10
2008,07,01,08,29,19.10
2008,07,01,08,30,19.00
2008,07,01,08,31,18.90
2008,07,01,08,32,18.90
2008,07,01,08,33,18.90
2008,07,01,08,34,18.90
2008,07,01,08,35,18.90
2008,07,01,08,36,18.90
2008,07,01,08,37,18.90
2008,07,01,08,38,18.90
2008,07,01,08,39,18.90
2008,07,01,08,40,19.00
2008,07,01,08,41,19.10
2008,07,01,08,42,19.10
2008,07,01,08,43,19.10
2008,07,01,08,44,19.10
2008,07,01,08,45,19.10
2008,07,01,08,46,19.10
2008,07,01,08,47,19.10
2008,07,01,08,48,19.10
2008,07,01,08,49,19.20
2008,07,01,08,50,19.20
2008,07,01,08,51,19.20
2008,07,01,08,52,19.20
2008,07,01,08,53,19.20
2008,07,01,08,54,19.10
2008,07,01,08,55,19.10
2008,07,01,08,56,19.10
2008,07,01,08,57,19.10
2008,07,01,08,58,19.10
2008,07,01,08,59,19.10
2008,07,01,09,00,19.10
2008,07,01,09,01,19.20
2008,07,01,09,02,19.20
2008,07,01,09,03,19.20
2008,07,01,09,04,19.30
2008,07,01,09,05,19.30
2008,07,01,09,06,19.30
2008,07,01,09,07,19.40
2008,07,01,09,08,19.40
2008,07,01,09,09,19.40
2008,07,01,09,10,19.40
2008,07,01,09,11,19.40
2008,07,01,09,12,19.40
2008,07,01,09,13,19.40
2008,07,01,09,14,19.40
2008,07,01,09,15,19.40
2008,07,01,09,16,19.40
2008,07,01,09,17,19.30
2008,07,01,09,18,19.30
2008,07,01,09,19,19.30
2008,07,01,09,20,19.20
2008,07,01,09,21,19.20
2008,07,01,09,22,19.20
2008,07,01,09,23,19.10
2008,07,01,09,24,19.10
2008,07,01,09,25,19.10
2008,07,01,09,26,19.10
2008,07,01,09,27,19.10
2008,07,01,09,28,19.10
2008,07,01,09,29,19.10
2008,07,01,09,30,19.10
2008,07,01,09,31,19.10
2008,07,01,09,32,19.10
2008,07,01,09,33,19.10
2008,07,01,09,34,19.10
2008,07,01,09,35,19.10
2008,07,01,09,36,19.10
2008,07,01,09,37,19.10
2008,07,01,09,38,19.10
2008,07,01,09,39,19.10
2008,07,01,09,40,19.10
2008,07,01,09,41,19.10
2008,07,01,09,42,19.10
2008,07,01,09,43,19.10
2008,07,01,09,44,19.20
2008,07,01,09,45,19.20
2008,07,01,09,46,19.20
2008,07,01,09,47,19.20
2008,07,01,09,48,19.30
2008,07,01,09,49,19.30
2008,07,01,09,50,19.30
2008,07,01,09,51,19.30
2008,07,01,09,52,19.30
2008,07,01,09,53,19.40
2008,07,01,09,54,19.40
2008,07,01,09,55,19.40
2008,07,01,09,56,19.40
2008,07,01,09,57,19.50
2008,07,01,09,58,19.60
2008,07,01,09,59,19.60
2008,07,01,10,00,19.70
2008,07,01,10,01,19.80
2008,07,01,10,02,19.80
2008,07,01,10,03,19.80
2008,07,01,10,04,19.80
2008,07,01,10,05,19.80
2008,07,01,10,06,19.80
2008,07,01,10,07,19.80
2008,07,01,10,08,19.80
2008,07,01,10,09,19.90
2008,07,01,10,10,19.90
2008,07,01,10,11,19.90
2008,07,01,10,12,19.90
2008,07,01,10,13,19.90
2008,07,01,10,14,19.80
2008,07,01,10,15,19.80
2008,07,01,10,16,19.80
2008,07,01,10,17,19.80
2008,07,01,10,18,19.90
2008,07,01,10,19,19.80
2008,07,01,10,20,19.80
2008,07,01,10,21,19.80
2008,07,01,10,22,19.90
2008,07,01,10,23,19.90
2008,07,01,10,24,19.90
2008,07,01,10,25,19.90
2008,07,01,10,26,19.90
2008,07,01,10,27,19.90
2008,07,01,10,28,19.90
2008,07,01,10,29,19.90
2008,07,01,10,30,19.90
2008,07,01,10,31,19.90
2008,07,01,10,32,19.90
2008,07,01,10,33,19.90
2008,07,01,10,34,19.90
2008,07,01,10,35,19.90
2008,07,01,10,36,19.90
2008,07,01,10,37,19.90
2008,07,01,10,38,19.90
2008,07,01,10,39,19.90
2008,07,01,10,40,19.90
2008,07,01,10,41,19.90
2008,07,01,10,42,19.90
2008,07,01,10,43,19.90
2008,07,01,10,44,19.90
2008,07,01,10,45,19.90
2008,07,01,10,46,19.90
2008,07,01,10,47,19.90
2008,07,01,10,48,19.90
2008,07,01,10,49,19.90
2008,07,01,10,50,19.90
2008,07,01,10,51,19.80
2008,07,01,10,52,19.70
2008,07,01,10,53,19.70
2008,07,01,10,54,19.60
2008,07,01,10,55,19.50
2008,07,01,10,56,19.50
2008,07,01,10,57,19.50
2008,07,01,10,58,19.50
2008,07,01,10,59,19.60
2008,07,01,11,00,19.70
2008,07,01,11,01,19.70
2008,07,01,11,02,19.70
2008,07,01,11,03,19.60
2008,07,01,11,04,19.60
2008,07,01,11,05,19.50
2008,07,01,11,06,19.50
2008,07,01,11,07,19.40
2008,07,01,11,08,19.40
2008,07,01,11,09,19.30
2008,07,01,11,10,19.30
2008,07,01,11,11,19.30
2008,07,01,11,12,19.30
2008,07,01,11,13,19.30
2008,07,01,11,14,19.20
2008,07,01,11,15,19.10
2008,07,01,11,16,19.10
2008,07,01,11,17,19.10
2008,07,01,11,18,19.20
2008,07,01,11,19,19.30
2008,07,01,11,20,19.40
2008,07,01,11,21,19.40
2008,07,01,11,22,19.50
2008,07,01,11,23,19.60
2008,07,01,11,24,19.70
2008,07,01,11,25,19.70
2008,07,01,11,26,19.90
2008,07,01,11,27,19.90
2008,07,01,11,28,20.10
2008,07,01,11,29,20.10
2008,07,01,11,30,20.20
2008,07,01,11,31,20.20
2008,07,01,11,32,20.10
2008,07,01,11,33,20.20
2008,07,01,11,34,20.20
2008,07,01,11,35,20.20
2008,07,01,11,36,20.20
2008,07,01,11,37,20.30
2008,07,01,11,38,20.30
2008,07,01,11,39,20.40
2008,07,01,11,40,20.50
2008,07,01,11,41,20.50
2008,07,01,11,42,20.50
2008,07,01,11,43,20.50
2008,07,01,11,44,20.50
2008,07,01,11,45,20.60
2008,07,01,11,46,20.70
2008,07,01,11,47,20.80
2008,07,01,11,48,21.00
2008,07,01,11,49,21.10
2008,07,01,11,50,21.20
2008,07,01,11,51,21.30
2008,07,01,11,52,21.30
2008,07,01,11,53,21.30
2008,07,01,11,54,21.30
2008,07,01,11,55,21.30
2008,07,01,11,56,21.20
2008,07,01,11,57,21.10
2008,07,01,11,58,21.10
2008,07,01,11,59,21.20
2008,07,01,12,00,21.30
2008,07,01,12,01,21.30
2008,07,01,12,02,21.30
2008,07,01,12,03,21.30
2008,07,01,12,04,21.30
2008,07,01,12,05,21.30
2008,07,01,12,06,21.20
2008,07,01,12,07,21.20
2008,07,01,12,08,21.10
2008,07,01,12,09,21.00
2008,07,01,12,10,21.00
2008,07,01,12,11,20.90
2008,07,01,12,12,20.80
2008,07,01,12,13,20.80
2008,07,01,12,14,20.80
2008,07,01,12,15,20.90
2008,07,01,12,16,21.00
2008,07,01,12,17,21.00
2008,07,01,12,18,20.90
2008,07,01,12,19,21.00
2008,07,01,12,20,20.90
2008,07,01,12,21,20.80
2008,07,01,12,22,20.70
2008,07,01,12,23,20.70
2008,07,01,12,24,20.60
2008,07,01,12,25,20.70
2008,07,01,12,26,20.70
2008,07,01,12,27,20.80
2008,07,01,12,28,21.00
2008,07,01,12,29,21.00
2008,07,01,12,30,21.00
2008,07,01,12,31,21.00
2008,07,01,12,32,20.90
2008,07,01,12,33,20.80
2008,07,01,12,34,20.80
2008,07,01,12,35,20.80
2008,07,01,12,36,20.80
2008,07,01,12,37,20.80
2008,07,01,12,38,20.80
2008,07,01,12,39,20.80
2008,07,01,12,40,20.70
2008,07,01,12,41,20.70
2008,07,01,12,42,20.70
2008,07,01,12,43,20.70
2008,07,01,12,44,20.70
2008,07,01,12,45,20.70
2008,07,01,12,46,20.70
2008,07,01,12,47,20.80
2008,07,01,12,48,20.80
2008,07,01,12,49,20.80
2008,07,01,12,50,20.80
2008,07,01,12,51,20.90
2008,07,01,12,52,20.90
2008,07,01,12,53,20.90
2008,07,01,12,54,20.90
2008,07,01,12,55,20.90
2008,07,01,12,56,20.90
2008,07,01,12,57,20.80
2008,07,01,12,58,20.80
2008,07,01,12,59,20.80
2008,07,01,13,00,20.90
2008,07,01,13,01,20.90
2008,07,01,13,02,21.00
2008,07,01,13,03,21.00
2008,07,01,13,04,21.00
2008,07,01,13,05,21.00
2008,07,01,13,06,20.90
2008,07,01,13,07,20.80
2008,07,01,13,08,20.70
2008,07,01,13,09,20.70
2008,07,01,13,10,20.80
2008,07,01,13,11,20.90
2008,07,01,13,12,21.00
2008,07,01,13,13,21.00
2008,07,01,13,14,21.10
2008,07,01,13,15,21.00
2008,07,01,13,16,21.00
2008,07,01,13,17,21.00
2008,07,01,13,18,21.00
2008,07,01,13,19,21.00
2008,07,01,13,20,21.10
2008,07,01,13,21,21.10
2008,07,01,13,22,21.20
2008,07,01,13,23,21.20
2008,07,01,13,24,21.20
2008,07,01,13,25,21.20
2008,07,01,13,26,21.10
2008,07,01,13,27,21.10
2008,07,01,13,28,21.00
2008,07,01,13,29,20.90
2008,07,01,13,30,20.90
2008,07,01,13,31,20.90
2008,07,01,13,32,21.00
2008,07,01,13,33,21.00
2008,07,01,13,34,21.00
2008,07,01,13,35,21.00
2008,07,01,13,36,20.90
2008,07,01,13,37,20.80
2008,07,01,13,38,20.80
2008,07,01,13,39,20.80
2008,07,01,13,40,20.80
2008,07,01,13,41,20.70
2008,07,01,13,42,20.60
2008,07,01,13,43,20.60
2008,07,01,13,44,20.60
2008,07,01,13,45,20.60
2008,07,01,13,46,20.60
2008,07,01,13,47,20.60
2008,07,01,13,48,20.70
2008,07,01,13,49,20.90
2008,07,01,13,50,21.00
2008,07,01,13,51,21.10
2008,07,01,13,52,21.30
2008,07,01,13,53,21.30
2008,07,01,13,54,21.30
2008,07,01,13,55,21.30
2008,07,01,13,56,21.30
2008,07,01,13,57,21.40
2008,07,01,13,58,21.50
2008,07,01,13,59,21.60
2008,07,01,14,00,21.60
2008,07,01,14,01,21.60
2008,07,01,14,02,21.60
2008,07,01,14,03,21.60
2008,07,01,14,04,21.50
2008,07,01,14,05,21.40
2008,07,01,14,06,21.40
2008,07,01,14,07,21.30
2008,07,01,14,08,21.30
2008,07,01,14,09,21.30
2008,07,01,14,10,21.30
2008,07,01,14,11,21.30
2008,07,01,14,12,21.30
2008,07,01,14,13,21.20
2008,07,01,14,14,21.10
2008,07,01,14,15,21.10
2008,07,01,14,16,21.10
2008,07,01,14,17,21.20
2008,07,01,14,18,21.20
2008,07,01,14,19,21.30
2008,07,01,14,20,21.30
2008,07,01,14,21,21.30
2008,07,01,14,22,21.30
2008,07,01,14,23,21.30
2008,07,01,14,24,21.30
2008,07,01,14,25,21.40
2008,07,01,14,26,21.50
2008,07,01,14,27,21.60
2008,07,01,14,28,21.60
2008,07,01,14,29,21.70
2008,07,01,14,30,21.70
2008,07,01,14,31,21.70
2008,07,01,14,32,21.80
2008,07,01,14,33,21.90
2008,07,01,14,34,21.90
2008,07,01,14,35,22.00
2008,07,01,14,36,22.00
2008,07,01,14,37,22.10
2008,07,01,14,38,22.10
2008,07,01,14,39,22.20
2008,07,01,14,40,22.30
2008,07,01,14,41,22.30
2008,07,01,14,42,22.30
2008,07,01,14,43,22.40
2008,07,01,14,44,22.40
2008,07,01,14,45,22.60
2008,07,01,14,46,22.60
2008,07,01,14,47,22.60
2008,07,01,14,48,22.60
2008,07,01,14,49,22.50
2008,07,01,14,50,22.40
2008,07,01,14,51,22.40
2008,07,01,14,52,22.40
2008,07,01,14,53,22.40
2008,07,01,14,54,22.40
2008,07,01,14,55,22.40
2008,07,01,14,56,22.40
2008,07,01,14,57,22.40
2008,07,01,14,58,22.50
2008,07,01,14,59,22.40
2008,07,01,15,00,22.30
2008,07,01,15,01,22.30
2008,07,01,15,02,22.30
2008,07,01,15,03,22.40
2008,07,01,15,04,22.40
2008,07,01,15,05,22.50
2008,07,01,15,06,22.60
2008,07,01,15,07,22.60
2008,07,01,15,08,22.70
2008,07,01,15,09,22.70
2008,07,01,15,10,22.80
2008,07,01,15,11,22.80
2008,07,01,15,12,22.70
2008,07,01,15,13,22.70
2008,07,01,15,14,22.70
2008,07,01,15,15,22.70
2008,07,01,15,16,22.80
2008,07,01,15,17,22.70
2008,07,01,15,18,22.60
2008,07,01,15,19,22.70
2008,07,01,15,20,22.70
2008,07,01,15,21,22.80
2008,07,01,15,22,22.80
2008,07,01,15,23,22.70
2008,07,01,15,24,22.70
2008,07,01,15,25,22.70
2008,07,01,15,26,22.70
2008,07,01,15,27,22.70
2008,07,01,15,28,22.70
2008,07,01,15,29,22.70
2008,07,01,15,30,22.80
2008,07,01,15,31,22.80
2008,07,01,15,32,22.80
2008,07,01,15,33,22.90
2008,07,01,15,34,22.90
2008,07,01,15,35,22.80
2008,07,01,15,36,22.80
2008,07,01,15,37,22.90
2008,07,01,15,38,22.90
2008,07,01,15,39,22.90
2008,07,01,15,40,22.90
2008,07,01,15,41,23.00
2008,07,01,15,42,23.10
2008,07,01,15,43,23.10
2008,07,01,15,44,23.20
2008,07,01,15,45,23.20
2008,07,01,15,46,23.20
2008,07,01,15,47,23.20
2008,07,01,15,48,23.30
2008,07,01,15,49,23.30
2008,07,01,15,50,23.40
2008,07,01,15,51,23.60
2008,07,01,15,52,23.70
2008,07,01,15,53,23.70
2008,07,01,15,54,23.70
2008,07,01,15,55,23.70
2008,07,01,15,56,23.70
2008,07,01,15,57,23.70
2008,07,01,15,58,23.70
2008,07,01,15,59,23.70
2008,07,01,16,00,23.80
2008,07,01,16,01,23.90
2008,07,01,16,02,23.90
2008,07,01,16,03,24.00
2008,07,01,16,04,24.10
2008,07,01,16,05,24.10
2008,07,01,16,06,24.20
2008,07,01,16,07,24.30
2008,07,01,16,08,24.30
2008,07,01,16,09,24.30
2008,07,01,16,10,24.30
2008,07,01,16,11,24.20
2008,07,01,16,12,24.20
2008,07,01,16,13,24.00
2008,07,01,16,14,23.90
2008,07,01,16,15,23.80
2008,07,01,16,16,23.80
2008,07,01,16,17,23.90
2008,07,01,16,18,23.90
2008,07,01,16,19,23.90
2008,07,01,16,20,24.00
2008,07,01,16,21,23.90
2008,07,01,16,22,23.90
2008,07,01,16,23,23.80
2008,07,01,16,24,23.70
2008,07,01,16,25,23.70
2008,07,01,16,26,23.50
2008,07,01,16,27,23.40
2008,07,01,16,28,23.40
2008,07,01,16,29,23.20
2008,07,01,16,30,23.20
2008,07,01,16,31,23.20
2008,07,01,16,32,23.20
2008,07,01,16,33,23.30
2008,07,01,16,34,23.20
2008,07,01,16,35,23.20
2008,07,01,16,36,23.00
2008,07,01,16,37,22.90
2008,07,01,16,38,22.80
2008,07,01,16,39,22.70
2008,07,01,16,40,22.60
2008,07,01,16,41,22.60
2008,07,01,16,42,22.40
2008,07,01,16,43,22.20
2008,07,01,16,44,22.10
2008,07,01,16,45,22.10
2008,07,01,16,46,22.10
2008,07,01,16,47,22.10
2008,07,01,16,48,22.20
2008,07,01,16,49,22.30
2008,07,01,16,50,22.30
2008,07,01,16,51,22.30
2008,07,01,16,52,22.20
2008,07,01,16,53,22.30
2008,07,01,16,54,22.40
2008,07,01,16,55,22.40
2008,07,01,16,56,22.40
2008,07,01,16,57,22.40
2008,07,01,16,58,22.30
2008,07,01,16,59,22.20
2008,07,01,17,00,22.10
2008,07,01,17,01,22.20
2008,07,01,17,02,22.20
2008,07,01,17,03,22.10
2008,07,01,17,04,22.10
2008,07,01,17,05,22.10
2008,07,01,17,06,22.10
2008,07,01,17,07,22.00
2008,07,01,17,08,21.90
2008,07,01,17,09,21.70
2008,07,01,17,10,21.60
2008,07,01,17,11,21.50
2008,07,01,17,12,21.30
2008,07,01,17,13,21.30
2008,07,01,17,14,21.30
2008,07,01,17,15,21.30
2008,07,01,17,16,21.40
2008,07,01,17,17,21.30
2008,07,01,17,18,21.30
2008,07,01,17,19,21.30
2008,07,01,17,20,21.30
2008,07,01,17,21,21.30
2008,07,01,17,22,21.40
2008,07,01,17,23,21.60
2008,07,01,17,24,21.60
2008,07,01,17,25,21.80
2008,07,01,17,26,22.00
2008,07,01,17,27,22.20
2008,07,01,17,28,22.40
2008,07,01,17,29,22.60
2008,07,01,17,30,22.80
2008,07,01,17,31,22.90
2008,07,01,17,32,23.10
2008,07,01,17,33,23.20
2008,07,01,17,34,23.30
2008,07,01,17,35,23.50
2008,07,01,17,36,23.70
2008,07,01,17,37,23.80
2008,07,01,17,38,23.90
2008,07,01,17,39,23.90
2008,07,01,17,40,24.00
2008,07,01,17,41,24.10
2008,07,01,17,42,24.10
2008,07,01,17,43,24.10
2008,07,01,17,44,24.10
2008,07,01,17,45,24.10
2008,07,01,17,46,24.10
2008,07,01,17,47,24.10
2008,07,01,17,48,24.10
2008,07,01,17,49,24.20
2008,07,01,17,50,24.20
2008,07,01,17,51,24.20
2008,07,01,17,52,24.20
2008,07,01,17,53,24.30
2008,07,01,17,54,24.30
2008,07,01,17,55,24.30
2008,07,01,17,56,24.30
2008,07,01,17,57,24.30
2008,07,01,17,58,24.30
2008,07,01,17,59,24.30
2008,07,01,18,00,24.30
2008,07,01,18,01,24.30
2008,07,01,18,02,24.30
2008,07,01,18,03,24.30
2008,07,01,18,04,24.20
2008,07,01,18,05,24.20
2008,07,01,18,06,24.20
2008,07,01,18,07,24.10
2008,07,01,18,08,24.10